2015-04-08 00:01:07 r, 19.61m,0000000001Hz,0000379137c,0000000.823s, 013.8C,00002191
2015-04-08 00:11:08 r, 19.49m,0000000001Hz,0000341430c,0000000.741s, 013.8C,00002191
2015-04-08 00:21:07 r, 19.42m,0000000001Hz,0000321506c,0000000.698s, 013.5C,00002191
2015-04-08 00:31:07 r, 19.30m,0000000001Hz,0000286112c,0000000.621s, 013.5C,00002191
2015-04-08 00:41:09 r, 19.22m,0000000001Hz,0000265909c,0000000.577s, 013.5C,00002191
2015-04-08 00:51:07 r, 19.16m,0000000001Hz,0000251551c,0000000.546s, 013.5C,00002191
2015-04-08 01:01:07 r, 19.11m,0000000002Hz,0000240099c,0000000.521s, 013.5C,00002191
2015-04-08 01:11:08 r, 19.06m,0000000002Hz,0000228626c,0000000.496s, 013.5C,00002191
2015-04-08 01:21:07 r, 19.01m,0000000002Hz,0000219796c,0000000.477s, 013.5C,00002191
2015-04-08 01:31:07 r, 18.97m,0000000002Hz,0000210237c,0000000.456s, 013.5C,00002191
2015-04-08 01:41:07 r, 18.91m,0000000002Hz,0000199752c,0000000.433s, 013.5C,00002191
2015-04-08 01:51:07 r, 18.88m,0000000002Hz,0000192990c,0000000.419s, 013.5C,00002191
2015-04-08 02:01:07 r, 18.87m,0000000002Hz,0000192157c,0000000.417s, 013.5C,00002191
2015-04-08 02:11:08 r, 18.78m,0000000003Hz,0000177853c,0000000.386s, 013.5C,00002191
2015-04-08 02:21:07 r, 18.76m,0000000003Hz,0000175652c,0000000.381s, 013.5C,00002191
2015-04-08 02:31:07 r, 18.71m,0000000003Hz,0000167044c,0000000.363s, 013.2C,00002191
2015-04-08 02:41:07 r, 18.68m,0000000003Hz,0000162100c,0000000.352s, 013.2C,00002191
2015-04-08 02:51:07 r, 18.63m,0000000003Hz,0000155569c,0000000.338s, 013.2C,00002191
2015-04-08 03:01:07 r, 18.61m,0000000003Hz,0000152243c,0000000.330s, 013.2C,00002191
2015-04-08 03:11:07 r, 18.51m,0000000004Hz,0000139073c,0000000.302s, 013.2C,00002191
2015-04-08 03:21:07 r, 18.54m,0000000004Hz,0000143844c,0000000.312s, 013.2C,00002191
2015-04-08 03:31:07 r, 18.53m,0000000003Hz,0000143043c,0000000.310s, 013.5C,00002191
2015-04-08 03:41:07 r, 18.47m,0000000003Hz,0000134452c,0000000.292s, 013.5C,00002191
2015-04-08 03:51:07 r, 18.37m,0000000004Hz,0000121876c,0000000.264s, 013.5C,00002191
2015-04-08 04:01:07 r, 18.34m,0000000004Hz,0000118831c,0000000.258s, 013.5C,00002191
2015-04-08 04:11:08 r, 18.51m,0000000003Hz,0000139106c,0000000.302s, 013.5C,00002191
2015-04-08 04:21:07 r, 18.57m,0000000004Hz,0000147172c,0000000.319s, 013.5C,00002191
2015-04-08 04:31:07 r, 18.51m,0000000004Hz,0000140055c,0000000.304s, 013.5C,00002191
2015-04-08 04:41:09 r, 18.58m,0000000003Hz,0000147814c,0000000.321s, 013.5C,00002191
2015-04-08 04:51:07 r, 18.60m,0000000003Hz,0000150648c,0000000.327s, 013.5C,00002191
2015-04-08 05:01:07 r, 18.68m,0000000003Hz,0000163116c,0000000.354s, 013.5C,00002191
2015-04-08 05:11:07 r, 18.72m,0000000003Hz,0000169220c,0000000.367s, 013.5C,00002191
2015-04-08 05:21:07 r, 18.71m,0000000003Hz,0000167785c,0000000.364s, 013.5C,00002191
2015-04-08 05:31:07 r, 18.63m,0000000003Hz,0000156522c,0000000.340s, 013.5C,00002191
2015-04-08 05:41:08 r, 18.48m,0000000003Hz,0000135471c,0000000.294s, 013.5C,00002191
2015-04-08 05:51:07 r, 18.07m,0000000005Hz,0000093066c,0000000.202s, 013.5C,00002191
2015-04-08 06:01:07 r, 16.97m,0000000014Hz,0000033566c,0000000.073s, 013.5C,00002191
2015-04-08 06:11:08 r, 15.05m,0000000079Hz,0000005732c,0000000.012s, 013.5C,00002191
2015-04-08 06:21:07 r, 12.94m,0000000564Hz,0000000000c,0000000.000s, 013.5C,00002191
2015-04-08 06:31:07 r, 11.11m,0000003027Hz,0000000000c,0000000.000s, 013.5C,00002191
2015-04-08 06:41:08 r, 09.35m,0000015426Hz,0000000000c,0000000.000s, 013.5C,00002191
2015-04-08 06:51:07 r, 08.03m,0000051825Hz,0000000000c,0000000.000s, 013.5C,00002191
2015-04-08 07:01:07 r, 07.03m,0000130988Hz,0000000000c,0000000.000s, 013.5C,00002191
2015-04-08 07:11:08 r, 06.35m,0000243345Hz,0000000000c,0000000.000s, 013.5C,00002191
2015-04-08 07:21:07 r, 05.85m,0000385641Hz,0000000000c,0000000.000s, 013.8C,00002191
2015-04-08 07:31:07 r, 00.00m,0000513734Hz,0000000000c,0000000.000s, 013.8C,00002191
2015-04-08 07:41:07 r, 00.00m,0000595646Hz,0000000000c,0000000.000s, 013.8C,00002191
2015-04-08 07:51:07 r, 00.00m,0000595641Hz,0000000000c,0000000.000s, 014.1C,00002191
2015-04-08 08:01:07 r, 00.00m,0000595620Hz,0000000000c,0000000.000s, 014.1C,00002191
2015-04-08 08:11:07 r, 00.00m,0000595636Hz,0000000000c,0000000.000s, 014.5C,00002191
2015-04-08 08:21:07 r, 00.00m,0000595589Hz,0000000000c,0000000.000s, 014.5C,00002191
2015-04-08 08:31:07 r, 00.00m,0000595538Hz,0000000000c,0000000.000s, 015.1C,00002191
2015-04-08 08:41:07 r, 00.00m,0000595515Hz,0000000000c,0000000.000s, 015.1C,00002191
2015-04-08 08:51:07 r, 00.00m,0000595509Hz,0000000000c,0000000.000s, 015.7C,00002191
2015-04-08 09:01:07 r, 00.00m,0000595517Hz,0000000000c,0000000.000s, 016.4C,00002191
2015-04-08 09:11:07 r, 00.00m,0000595389Hz,0000000000c,0000000.000s, 016.7C,00002191
2015-04-08 09:21:07 r, 00.00m,0000595367Hz,0000000000c,0000000.000s, 016.7C,00002191
2015-04-08 09:31:07 r, 00.00m,0000595458Hz,0000000000c,0000000.000s, 016.7C,00002191
2015-04-08 09:41:07 r, 00.00m,0000595363Hz,0000000000c,0000000.000s, 017.4C,00002191
2015-04-08 09:51:07 r, 00.00m,0000595208Hz,0000000000c,0000000.000s, 018.6C,00002191
2015-04-08 10:01:07 r, 00.00m,0000595199Hz,0000000000c,0000000.000s, 020.3C,00002191
2015-04-08 10:11:07 r, 00.00m,0000594969Hz,0000000000c,0000000.000s, 022.2C,00002191
2015-04-08 10:21:07 r, 00.00m,0000594882Hz,0000000000c,0000000.000s, 022.8C,00002191
2015-04-08 10:31:07 r, 00.00m,0000594888Hz,0000000000c,0000000.000s, 023.5C,00002191
2015-04-08 10:41:07 r, 00.00m,0000594681Hz,0000000000c,0000000.000s, 025.1C,00002191
2015-04-08 10:51:07 r, 00.00m,0000594491Hz,0000000000c,0000000.000s, 026.4C,00002191
2015-04-08 11:01:07 r, 00.00m,0000594468Hz,0000000000c,0000000.000s, 027.0C,00002191
2015-04-08 11:11:07 r, 00.00m,0000594689Hz,0000000000c,0000000.000s, 024.8C,00002191
2015-04-08 11:21:07 r, 00.00m,0000594828Hz,0000000000c,0000000.000s, 023.2C,00002191
2015-04-08 11:31:07 r, 00.00m,0000594767Hz,0000000000c,0000000.000s, 024.4C,00002191
2015-04-08 11:41:07 r, 00.00m,0000594188Hz,0000000000c,0000000.000s, 028.3C,00002191
2015-04-08 11:51:07 r, 00.00m,0000594059Hz,0000000000c,0000000.000s, 029.9C,00002191
2015-04-08 12:01:07 r, 00.00m,0000594067Hz,0000000000c,0000000.000s, 030.2C,00002191
2015-04-08 12:11:07 r, 00.00m,0000594037Hz,0000000000c,0000000.000s, 030.2C,00002191
2015-04-08 12:21:07 r, 00.00m,0000594326Hz,0000000000c,0000000.000s, 028.3C,00002191
2015-04-08 12:31:07 r, 00.00m,0000593985Hz,0000000000c,0000000.000s, 029.9C,00002191
2015-04-08 12:41:09 r, 00.00m,0000594056Hz,0000000000c,0000000.000s, 029.3C,00002191
2015-04-08 12:51:07 r, 00.00m,0000593859Hz,0000000000c,0000000.000s, 030.9C,00002191
2015-04-08 13:01:07 r, 00.00m,0000593965Hz,0000000000c,0000000.000s, 030.6C,00002191
2015-04-08 13:11:07 r, 00.00m,0000594225Hz,0000000000c,0000000.000s, 028.3C,00002191
2015-04-08 13:21:07 r, 00.00m,0000594174Hz,0000000000c,0000000.000s, 027.7C,00002191
2015-04-08 13:31:07 r, 00.00m,0000594232Hz,0000000000c,0000000.000s, 029.0C,00002191
2015-04-08 13:41:07 r, 00.00m,0000594296Hz,0000000000c,0000000.000s, 027.7C,00002191
2015-04-08 13:51:07 r, 00.00m,0000594160Hz,0000000000c,0000000.000s, 028.6C,00002191
2015-04-08 14:01:07 r, 00.00m,0000593467Hz,0000000000c,0000000.000s, 033.1C,00002191
2015-04-08 14:11:07 r, 00.00m,0000593245Hz,0000000000c,0000000.000s, 036.0C,00002191
2015-04-08 14:21:07 r, 00.00m,0000593695Hz,0000000000c,0000000.000s, 032.8C,00002191
2015-04-08 14:31:07 r, 00.00m,0000593878Hz,0000000000c,0000000.000s, 031.9C,00002191
2015-04-08 14:41:07 r, 00.00m,0000593572Hz,0000000000c,0000000.000s, 032.8C,00002191
2015-04-08 14:51:07 r, 00.00m,0000593741Hz,0000000000c,0000000.000s, 032.5C,00002191
2015-04-08 15:01:07 r, 00.00m,0000593989Hz,0000000000c,0000000.000s, 029.9C,00002191
2015-04-08 15:11:08 r, 00.00m,0000594108Hz,0000000000c,0000000.000s, 029.6C,00002191
2015-04-08 15:21:07 r, 00.00m,0000593989Hz,0000000000c,0000000.000s, 029.9C,00002191
2015-04-08 15:31:07 r, 00.00m,0000594120Hz,0000000000c,0000000.000s, 029.3C,00002191
2015-04-08 15:41:07 r, 00.00m,0000593979Hz,0000000000c,0000000.000s, 029.9C,00002191
2015-04-08 15:51:07 r, 00.00m,0000593539Hz,0000000000c,0000000.000s, 033.5C,00002191
2015-04-08 16:01:07 r, 00.00m,0000593502Hz,0000000000c,0000000.000s, 033.8C,00002191
2015-04-08 16:11:07 r, 00.00m,0000593590Hz,0000000000c,0000000.000s, 034.4C,00002191
2015-04-08 16:21:08 r, 00.00m,0000593693Hz,0000000000c,0000000.000s, 033.5C,00002191
2015-04-08 16:31:07 r, 00.00m,0000593891Hz,0000000000c,0000000.000s, 031.2C,00002191
2015-04-08 16:41:07 r, 00.00m,0000593809Hz,0000000000c,0000000.000s, 031.5C,00002191
2015-04-08 16:51:08 r, 00.00m,0000593823Hz,0000000000c,0000000.000s, 031.9C,00002191
2015-04-08 17:01:07 r, 00.00m,0000593797Hz,0000000000c,0000000.000s, 032.5C,00002191
2015-04-08 17:11:07 r, 00.00m,0000593894Hz,0000000000c,0000000.000s, 031.9C,00002191
2015-04-08 17:21:07 r, 00.00m,0000593912Hz,0000000000c,0000000.000s, 030.9C,00002191
2015-04-08 17:31:07 r, 00.00m,0000594088Hz,0000000000c,0000000.000s, 029.6C,00002191
2015-04-08 17:41:07 r, 00.00m,0000594248Hz,0000000000c,0000000.000s, 028.6C,00002191
2015-04-08 17:51:07 r, 00.00m,0000594374Hz,0000000000c,0000000.000s, 028.0C,00002191
2015-04-08 18:01:07 r, 00.00m,0000594286Hz,0000000000c,0000000.000s, 027.0C,00002191
2015-04-08 18:11:07 r, 00.00m,0000594351Hz,0000000000c,0000000.000s, 026.7C,00002191
2015-04-08 18:21:08 r, 00.00m,0000594433Hz,0000000000c,0000000.000s, 026.4C,00002191
2015-04-08 18:31:07 r, 00.00m,0000594556Hz,0000000000c,0000000.000s, 025.4C,00002191
2015-04-08 18:41:07 r, 00.00m,0000594674Hz,0000000000c,0000000.000s, 024.1C,00002191
2015-04-08 18:51:07 r, 00.00m,0000594814Hz,0000000000c,0000000.000s, 023.2C,00002191
2015-04-08 19:01:07 r, 00.00m,0000594805Hz,0000000000c,0000000.000s, 022.2C,00002191
2015-04-08 19:11:07 r, 00.00m,0000594922Hz,0000000000c,0000000.000s, 021.9C,00002191
2015-04-08 19:21:07 r, 00.00m,0000594868Hz,0000000000c,0000000.000s, 021.2C,00002191
2015-04-08 19:31:07 r, 00.00m,0000595120Hz,0000000000c,0000000.000s, 020.9C,00002191
2015-04-08 19:41:07 r, 00.00m,0000476407Hz,0000000000c,0000000.000s, 020.3C,00002191
2015-04-08 19:51:07 r, 06.19m,0000284151Hz,0000000000c,0000000.000s, 019.6C,00002191
2015-04-08 20:01:07 r, 06.85m,0000154438Hz,0000000000c,0000000.000s, 019.3C,00002191
2015-04-08 20:11:07 r, 07.74m,0000067625Hz,0000000000c,0000000.000s, 019.0C,00002191
2015-04-08 20:21:09 r, 08.92m,0000022850Hz,0000000000c,0000000.000s, 018.3C,00002191
2015-04-08 20:31:07 r, 10.66m,0000004612Hz,0000000000c,0000000.000s, 018.0C,00002191
2015-04-08 20:41:07 r, 12.64m,0000000745Hz,0000000000c,0000000.000s, 017.4C,00002191
2015-04-08 20:51:07 r, 14.69m,0000000113Hz,0000004101c,0000000.009s, 017.4C,00002191
2015-04-08 21:01:07 r, 16.35m,0000000024Hz,0000019185c,0000000.042s, 016.7C,00002191
2015-04-08 21:11:07 r, 17.71m,0000000007Hz,0000066754c,0000000.145s, 016.7C,00002191
2015-04-08 21:21:07 r, 18.76m,0000000002Hz,0000174794c,0000000.379s, 016.4C,00002191
2015-04-08 21:31:07 r, 19.45m,0000000002Hz,0000328274c,0000000.712s, 016.1C,00002191
2015-04-08 21:41:07 r, 19.36m,0000000002Hz,0000301357c,0000000.654s, 015.7C,00002191
2015-04-08 21:51:08 r, 19.37m,0000000002Hz,0000306992c,0000000.666s, 015.7C,00002191
2015-04-08 22:01:07 r, 19.48m,0000000001Hz,0000337954c,0000000.733s, 015.4C,00002191
2015-04-08 22:11:07 r, 19.81m,0000000001Hz,0000458081c,0000000.994s, 015.4C,00002191
2015-04-08 22:21:07 r, 19.92m,0000000001Hz,0000504032c,0000001.094s, 015.1C,00002191
2015-04-08 22:31:07 r, 20.03m,0000000001Hz,0000558856c,0000001.213s, 015.1C,00002191
2015-04-08 22:41:07 r, 20.03m,0000000001Hz,0000558637c,0000001.212s, 014.8C,00002191
2015-04-08 22:51:07 r, 20.07m,0000000001Hz,0000584588c,0000001.269s, 014.8C,00002191
2015-04-08 23:01:07 r, 20.22m,0000000001Hz,0000665248c,0000001.444s, 014.8C,00002191
2015-04-08 23:11:07 r, 20.05m,0000000000Hz,0000571072c,0000001.239s, 014.5C,00002191
2015-04-08 23:28:16 r, 19.72m,0000000002Hz,0000421290c,0000000.914s, 014.5C,00002191
2015-04-08 23:38:16 r, 19.81m,0000000001Hz,0000457758c,0000000.993s, 014.8C,00002191
2015-04-08 23:48:16 r, 19.85m,0000000001Hz,0000473281c,0000001.027s, 014.5C,00002191
2015-04-08 23:58:16 r, 20.05m,0000000001Hz,0000571965c,0000001.241s, 014.5C,00002191
